Spearfish, SD

5:16 PM MDT on March 23, 2017 (GMT -0600)
Black Hills-Ice

Weather History for KSPF - November, 2013

Change the Weather History Date:

Wednesday, November 20, 2013

  Actual Average (KEFC) Record (KEFC)
Temperature  
Mean Temperature 24 °F -  
Max Temperature 41 °F 45 °F 68 °F (1962)
Min Temperature 8 °F 22 °F -2 °F (1978)
Degree Days  
Heating Degree Days 40    
Moisture  
Dew Point 21 °F    
Average Humidity 86    
Maximum Humidity 100    
Minimum Humidity 53    
Precipitation  
Precipitation 5.27 in - - ()
Sea Level Pressure  
Sea Level Pressure 29.90 in    
Wind  
Wind Speed 7 mph (NW)    
Max Wind Speed 21 mph    
Max Gust Speed 29 mph    
Visibility 5 miles    
Events Fog , Rain , Snow    
Averages and records for this station are not official NWS values.
T = Trace of Precipitation, MM = Missing Value Source: NWS Daily Summary

Daily Weather History Graph

Daily Weather History Graph

Search for Another Location

Airport or City:

Trip Planner

Search our weather history database for the weather conditions in past years. The results will help you decide how hot, cold, wet, or windy it might be!

Date:

Astronomy

Nov. 20, 2013 Rise Set
Actual Time 7:58 AM CST 5:22 PM CST
Civil Twilight 7:26 AM CST 5:54 PM CST
Nautical Twilight 6:50 AM CST 6:30 PM CST
Astronomical Twilight 6:16 AM CST 7:05 PM CST
Moon 8:07 PM CST (11/20) 10:25 AM CST (11/20)
Length of Visible Light 10h 28m
Length of Day
9h 24m
Waning Gibbous, 91% of the Moon is Illuminated
Nov 20
Waning Gibbous
Nov 25
Last Quarter
Dec 2
New
Dec 9
First Quarter
Dec 17
Full

Hourly Weather History & Observations

Time (CST) Temp. Windchill Dew Point Humidity Pressure Visibility Wind Dir Wind Speed Gust Speed Precip Events Conditions
12:15 AM 39.2 °F - 24.8 °F 56% 29.68 in 10.0 mi Calm Calm - N/A   Clear
12:35 AM 39.2 °F 33.0 °F 24.8 °F 56% 29.68 in 10.0 mi South 9.2 mph - N/A   Clear
12:55 AM 39.2 °F - 24.8 °F 56% 29.69 in 10.0 mi Calm Calm - N/A   Clear
1:15 AM 39.2 °F 35.0 °F 24.8 °F 56% 29.70 in 10.0 mi South 5.8 mph - N/A   Clear
1:35 AM 39.2 °F 33.6 °F 26.6 °F 61% 29.70 in 10.0 mi SSW 8.1 mph - N/A   Clear
1:55 AM 37.4 °F 31.4 °F 26.6 °F 65% 29.70 in 10.0 mi SSW 8.1 mph - N/A   Clear
2:15 AM 39.2 °F 34.2 °F 26.6 °F 61% 29.70 in 10.0 mi SSW 6.9 mph - N/A   Clear
2:35 AM 39.2 °F 33.6 °F 26.6 °F 61% 29.71 in 10.0 mi SSW 8.1 mph - N/A   Clear
2:55 AM 39.2 °F 35.0 °F 26.6 °F 61% 29.71 in 10.0 mi SSW 5.8 mph - N/A   Clear
3:15 AM 41.0 °F - 24.8 °F 53% 29.71 in 10.0 mi Calm Calm - N/A   Partly Cloudy
3:35 AM 39.2 °F 37.0 °F 24.8 °F 56% 29.71 in 10.0 mi South 3.5 mph - N/A   Partly Cloudy
3:55 AM 39.2 °F 31.6 °F 26.6 °F 61% 29.71 in 10.0 mi SSW 12.7 mph - N/A   Clear
4:15 AM 35.6 °F 32.8 °F 26.6 °F 70% 29.72 in 10.0 mi SW 3.5 mph - N/A   Clear
4:35 AM 37.4 °F 32.8 °F 24.8 °F 60% 29.72 in 10.0 mi SSW 5.8 mph - N/A   Clear
4:55 AM 37.4 °F 31.4 °F 24.8 °F 60% 29.71 in 10.0 mi SSW 8.1 mph - N/A   Clear
5:15 AM 37.4 °F 33.8 °F 24.8 °F 60% 29.72 in 10.0 mi West 4.6 mph - N/A   Clear
5:35 AM 35.6 °F 28.6 °F 24.8 °F 65% 29.73 in 10.0 mi WNW 9.2 mph - N/A   Clear
5:55 AM 35.6 °F 29.2 °F 24.8 °F 65% 29.74 in 10.0 mi West 8.1 mph - N/A   Clear
6:15 AM 33.8 °F 28.6 °F 24.8 °F 70% 29.76 in 10.0 mi West 5.8 mph - N/A   Clear
6:35 AM 35.6 °F 29.9 °F 24.8 °F 65% 29.77 in 10.0 mi NW 6.9 mph - N/A   Clear
6:55 AM 32.0 °F 24.2 °F 26.6 °F 80% 29.77 in 10.0 mi NW 9.2 mph - N/A   Clear
7:15 AM 30.2 °F 25.4 °F 26.6 °F 86% 29.78 in 10.0 mi NW 4.6 mph - N/A   Clear
7:35 AM 28.4 °F - 26.6 °F 93% 29.79 in 10.0 mi Calm Calm - N/A   Clear
7:55 AM 28.4 °F 23.3 °F 26.6 °F 93% 29.80 in 10.0 mi West 4.6 mph - N/A   Clear
8:15 AM 26.6 °F 21.2 °F 26.6 °F 100% 29.80 in 5.0 mi NW 4.6 mph - N/A   Partly Cloudy
8:35 AM 26.6 °F 20.0 °F 26.6 °F 100% 29.82 in 0.2 mi NW 5.8 mph - N/A Fog Light Freezing Fog
8:55 AM 26.6 °F - 26.6 °F 100% 29.82 in 0.2 mi Calm Calm - N/A Fog Light Freezing Fog
9:15 AM 26.6 °F 20.0 °F 26.6 °F 100% 29.83 in 0.2 mi NE 5.8 mph - N/A Fog Light Freezing Fog
9:35 AM 26.6 °F 20.0 °F 26.6 °F 100% 29.82 in 0.2 mi NNE 5.8 mph - N/A Fog Light Freezing Fog
9:55 AM 26.6 °F 21.2 °F 26.6 °F 100% 29.83 in 0.2 mi NNE 4.6 mph - N/A Fog Light Freezing Fog
10:15 AM 26.6 °F 21.2 °F 26.6 °F 100% 29.83 in 0.2 mi WSW 4.6 mph - N/A Fog Light Freezing Fog
10:35 AM 26.6 °F 20.0 °F 26.6 °F 100% 29.82 in 0.2 mi NW 5.8 mph - N/A Fog Light Freezing Fog
10:55 AM 26.6 °F 21.2 °F 26.6 °F 100% 29.82 in 0.2 mi North 4.6 mph - N/A Fog Light Freezing Fog
11:15 AM 26.6 °F 22.6 °F 26.6 °F 100% 29.82 in 0.2 mi WNW 3.5 mph - N/A Fog Light Freezing Fog
11:35 AM 26.6 °F 22.6 °F 26.6 °F 100% 29.82 in 0.2 mi NE 3.5 mph - N/A Fog Light Freezing Fog
11:55 AM 24.8 °F 16.9 °F 24.8 °F 100% 29.81 in 0.2 mi NE 6.9 mph - N/A Fog Light Freezing Fog
12:15 PM 24.8 °F 14.0 °F 24.8 °F 100% 29.79 in 0.2 mi NE 11.5 mph - N/A Fog Light Freezing Fog
12:35 PM 24.8 °F 14.6 °F 24.8 °F 100% 29.78 in 0.2 mi NE 10.4 mph - N/A Fog Light Freezing Fog
12:55 PM 24.8 °F 16.1 °F 24.8 °F 100% 29.77 in 0.2 mi NE 8.1 mph - N/A Fog Light Freezing Fog
1:15 PM 24.8 °F 16.1 °F 24.8 °F 100% 29.77 in 0.2 mi NE 8.1 mph - N/A Fog Light Freezing Fog
1:35 PM 24.8 °F 16.9 °F 24.8 °F 100% 29.77 in 0.2 mi NE 6.9 mph - N/A Fog Light Freezing Fog
1:55 PM 24.8 °F 15.3 °F 24.8 °F 100% 29.78 in 0.2 mi NE 9.2 mph - N/A Fog Light Freezing Fog
2:15 PM 24.8 °F 16.1 °F 24.8 °F 100% 29.80 in 0.2 mi NNE 8.1 mph - N/A Fog Light Freezing Fog
2:35 PM 24.8 °F 16.1 °F 24.8 °F 100% 29.83 in 0.2 mi NNE 8.1 mph - N/A Fog Light Freezing Fog
2:55 PM 23.0 °F 11.7 °F 23.0 °F 100% 29.85 in 0.2 mi NNW 11.5 mph - N/A Fog Light Freezing Fog
3:15 PM 23.0 °F 11.1 °F 23.0 °F 100% 29.88 in 0.2 mi NW 12.7 mph - N/A Fog Light Freezing Fog
3:35 PM 23.0 °F 11.7 °F 23.0 °F 100% 29.90 in 0.2 mi NW 11.5 mph - N/A   Overcast
3:55 PM 23.0 °F 11.7 °F 23.0 °F 100% 29.91 in 1.0 mi NW 11.5 mph - N/A   Overcast
4:15 PM 24.8 °F 12.9 °F 23.0 °F 93% 29.94 in 3.0 mi NW 13.8 mph 20.7 mph N/A   Overcast
4:35 PM 21.2 °F 5.6 °F 19.4 °F 93% 29.98 in 8.0 mi NW 20.7 mph 27.6 mph N/A Rain Light Freezing Rain
4:55 PM 19.4 °F 4.1 °F 19.4 °F 100% 30.01 in 7.0 mi NW 18.4 mph 28.8 mph N/A Snow Light Snow
5:15 PM 17.6 °F 0.9 °F 17.6 °F 100% 30.04 in 2.5 mi NW 20.7 mph 28.8 mph N/A Rain Light Freezing Rain
5:35 PM 17.6 °F 2.7 °F 15.8 °F 93% 30.05 in 2.5 mi NW 16.1 mph 26.5 mph 0.02 in Snow Light Snow
5:55 PM 15.8 °F 2.1 °F 14.0 °F 93% 30.07 in 1.0 mi NW 12.7 mph 25.3 mph 0.14 in Snow Light Snow
6:15 PM 15.8 °F -0.2 °F 14.0 °F 93% 30.09 in 1.5 mi NW 17.3 mph 21.9 mph 0.11 in Snow Light Snow
6:35 PM 15.8 °F 0.9 °F 14.0 °F 93% 30.11 in 1.2 mi NW 15.0 mph 21.9 mph 0.37 in Snow Light Snow
6:55 PM 14.0 °F - 12.2 °F 93% 30.12 in 2.5 mi North - - 0.65 in Snow Light Snow
7:15 PM 14.0 °F -1.4 °F 12.2 °F 93% 30.13 in 5.0 mi NW 15.0 mph 24.2 mph 0.02 in Snow Light Snow
7:35 PM 14.0 °F - 10.4 °F 86% 30.15 in 5.0 mi North - - 0.08 in Snow Light Snow
7:55 PM 14.0 °F - 10.4 °F 86% 30.16 in 10.0 mi North - - 0.08 in   Overcast
8:15 PM 14.0 °F - 10.4 °F 86% 30.16 in 5.0 mi North - - 0.02 in Snow Light Snow
8:35 PM 12.2 °F - 10.4 °F 92% 30.17 in 7.0 mi North - - 0.04 in Snow Light Snow
8:55 PM 10.4 °F - 8.6 °F 92% 30.19 in 5.0 mi North - - 0.07 in Snow Light Snow
9:15 PM 10.4 °F -6.0 °F 8.6 °F 92% 30.21 in 5.0 mi NW 15.0 mph - 0.02 in Snow Light Snow
9:35 PM 10.4 °F -6.0 °F 8.6 °F 92% 30.22 in 2.5 mi WNW 15.0 mph 23.0 mph 0.17 in Snow Light Snow
9:55 PM 10.4 °F -6.6 °F 6.8 °F 85% 30.23 in 0.5 mi WNW 16.1 mph 21.9 mph 1.11 in Snow Snow
10:15 PM 8.6 °F -8.9 °F 6.8 °F 92% 30.24 in 1.2 mi WNW 16.1 mph 20.7 mph 1.81 in Snow Light Snow
10:35 PM 8.6 °F -9.5 °F 6.8 °F 92% 30.25 in 2.5 mi WNW 17.3 mph 24.2 mph 2.31 in Snow Light Snow
10:55 PM 8.6 °F -7.0 °F 6.8 °F 92% 30.27 in 2.5 mi WNW 12.7 mph - 2.59 in Snow Light Snow
11:15 PM 8.6 °F -6.3 °F 5.0 °F 85% 30.27 in 4.0 mi WNW 11.5 mph - 0.10 in Snow Light Snow
11:35 PM 8.6 °F -7.7 °F 6.8 °F 92% 30.27 in 2.0 mi WNW 13.8 mph - 0.40 in Snow Light Snow
11:55 PM 8.6 °F -7.0 °F 5.0 °F 85% 30.28 in 3.0 mi WNW 12.7 mph - 0.63 in Snow Light Snow